CAPE
0 0 0 0 0 0 0 0 0 0 0 0 0 0 0 0 0 0 0 0 26 609 660 1567 2085 1319 697 766 318 399 367 273 502 631 701 724 918 779 840 963 947 861 841 803 715 572 441 377 397
0 0 0 0 0 0 0 0 0 0 0 0 0 25 2 0 282 68 51 83 209 760 706 1462 2093 1603 737 617 330 357 501 451 465 638 710 743 791 841 874 911 903 859 758 639 440 307 251 243 341
0 0 0 0 0 0 0 0 0 0 0 0 0 6 0 20 371 63 11 213 484 823 958 1521 1991 1484 936 600 375 349 417 536 439 684 740 800 837 949 1167 1025 939 815 611 473 330 209 191 215 260
0 0 0 0 0 0 0 0 0 0 0 0 0 0 90 267 270 89 99 300 386 573 879 1867 1653 1261 950 624 390 397 445 551 495 734 779 835 857 1016 1081 1052 881 714 593 415 267 200 151 169 243
0 0 0 0 0 0 0 0 0 0 0 44 9 15 230 463 69 46 109 72 78 317 709 1318 1094 875 860 554 463 441 534 583 560 762 758 697 902 1000 1013 944 863 782 610 464 349 299 466 534 586
0 0 0 0 0 0 0 0 0 1 0 2 53 8 200 178 33 27 31 7 26 177 467 993 1265 647 1009 661 598 563 526 466 683 753 835 852 919 951 964 916 860 761 649 568 515 829 1043 1031 1008
0 0 0 0 0 0 0 0 0 0 0 91 22 1 234 256 0 0 0 1 42 269 299 405 566 400 626 987 745 586 864 390 1023 1054 1107 1025 992 1005 1022 963 889 807 836 842 870 1192 1276 1304 1154
0 0 0 0 0 0 0 23 2 0 0 33 15 80 248 236 6 0 0 1 42 97 207 124 263 306 347 407 647 580 500 916 880 865 907 1116 1083 1063 1071 1204 1121 971 989 1142 1356 1420 1471 1425 1378
0 0 0 0 0 0 0 3 0 0 7 0 46 81 161 95 23 1 0 1 1 8 3 65 167 112 200 189 389 496 457 698 998 935 990 1193 845 680 958 949 1067 921 967 1228 1627 1701 1657 1676 1648
0 0 0 0 0 0 0 0 6 3 13 60 0 415 292 156 45 2 0 0 4 27 15 85 84 84 125 363 245 325 386 508 510 696 657 761 584 416 611 784 926 1035 1135 1506 1789 1826 1916 1754 836
0 0 0 0 0 0 0 6 5 8 8 43 7 572 360 262 147 41 1 0 0 4 40 70 126 104 137 311 148 204 266 332 393 500 495 513 464 235 272 242 215 185 332 567 633 651 537 312 153
0 0 0 0 0 0 0 4 38 35 19 54 6 527 472 400 303 189 78 11 0 0 21 89 135 171 189 160 208 338 367 286 375 425 379 338 252 182 75 54 49 79 100 175 261 376 396 184 62
0 0 0 0 0 0 0 0 12 76 42 48 193 496 395 229 213 205 222 186 92 0 5 29 123 177 215 153 201 285 312 364 416 381 335 258 187 139 42 0 0 9 88 145 217 179 140 93 139
0 0 0 0 0 0 0 0 0 0 0 11 0 0 0 0 0 2 2 100 163 141 48 0 19 47 48 63 34 86 143 188 217 224 238 220 165 72 0 0 0 13 52 121 170 184 185 193 650
0 0 0 0 0 0 0 0 0 0 0 0 0 0 0 0 0 0 0 0 0 133 113 10 2 2 12 34 19 40 2 42 42 38 3 31 48 28 14 0 0 0 44 68 124 165 177 854 847
0 0 0 0 0 0 0 0 0 0 0 0 0 0 0 0 0 0 0 0 0 0 5 39 69 0 0 0 0 19 0 0 0 0 0 7 11 1 0 39 109 140 127 91 245 591 867 961 634
0 0 0 0 0 0 0 0 0 0 0 0 0 0 0 0 0 0 0 0 0 0 0 0 0 0 0 0 0 6 0 0 0 0 0 3 39 143 89 131 179 151 218 555 784 1109 925 840 730
0 0 0 0 0 0 0 0 0 0 0 0 0 0 0 0 0 0 0 0 0 0 0 0 0 0 0 0 0 8 3 0 0 0 14 62 136 326 342 309 309 307 383 652 954 1075 898 708 633
0 0 0 0 0 0 0 0 0 0 0 0 0 0 0 0 0 0 0 0 0 0 0 0 0 0 0 3 41 2 33 18 0 5 30 111 196 380 385 373 358 385 529 709 982 866 894 530 16
0 0 0 0 0 0 0 0 0 0 0 0 0 0 0 0 0 0 0 0 0 0 0 0 0 0 0 0 3 44 122 178 147 84 82 156 399 495 436 398 393 521 677 895 1029 857 475 389 15
0 0 0 0 0 0 0 0 0 0 0 0 0 0 0 0 0 0 0 0 0 0 0 0 0 0 0 0 0 0 0 10 14 7 47 90 417 701 539 609 502 527 727 908 1093 960 473 585 8
0 0 0 0 0 0 0 0 0 0 0 0 0 0 0 0 0 0 0 0 0 0 0 0 0 0 0 0 0 1 4 5 9 20 27 10 81 263 995 817 725 769 737 906 1107 1089 1066 336 199
0 0 0 0 0 0 0 0 0 0 0 0 0 0 0 0 0 0 0 0 0 0 0 0 0 0 0 0 0 0 3 5 11 5 8 3 40 129 68 169 886 872 908 886 957 1115 839 244 160
0 0 0 0 0 0 0 0 0 0 0 0 0 0 0 0 0 0 0 0 0 0 0 0 0 0 0 0 0 0 1 11 4 0 1 5 3 0 0 45 295 652 1097 1074 1159 1178 777 373 0
0 0 0 0 0 0 0 0 0 0 0 0 0 0 0 0 0 0 0 0 0 0 0 0 0 0 0 0 0 0 0 0 0 1 11 2 2 1 0 1 9 57 325 974 1356 1116 741 18 0
0 0 0 0 0 0 0 0 0 0 0 0 0 0 0 0 0 0 0 0 0 0 0 0 0 0 0 0 0 0 0 0 0 0 0 0 0 0 2 6 8 21 43 289 903 746 217 0 0
0 0 0 0 0 0 0 0 0 0 0 0 0 0 0 0 0 0 0 0 0 0 0 0 0 0 0 0 0 0 0 0 0 0 0 1 1 1 1 3 6 13 5 137 368 211 6 0 0
0 0 0 0 0 0 0 0 0 0 0 0 0 0 0 0 0 0 0 0 0 0 0 1 0 1 1 0 0 0 0 0 1 2 3 3 3 6 8 8 9 8 0 46 32 1 0 0 1
0 0 0 0 0 0 0 0 0 0 0 0 0 0 0 0 0 0 0 0 2 1 3 1 0 0 0 0 1 0 0 0 2 2 3 3 3 1 1 5 10 11 5 14 0 0 1 0 1
0 0 0 0 0 0 0 1 0 0 0 0 0 0 0 0 0 0 0 0 0 0 0 0 0 2 0 1 1 0 0 0 0 1 2 2 2 4 0 0 0 10 7 10 0 0 1 3 0
CIN
0 0 0 0 0 0 0 0 0 0 0 0 0 0 0 0 0 0 0 0 -230 -383 -307 -113 -31 -90 -159 -125 -222 -192 -195 -207 -123 -86 -63 -48 -13 -17 -10 -5 -5 -5 -5 -10 -15 -21 -31 -40 -41
0 0 0 0 0 0 0 0 0 0 0 0 0 -133 -34 0 -394 -614 -629 -643 -540 -334 -303 -139 -42 -59 -173 -164 -233 -220 -172 -163 -136 -88 -71 -58 -40 -24 -18 -10 -14 -16 -20 -35 -47 -51 -64 -61 -53
0 0 0 0 0 0 0 0 0 0 0 0 -10 -56 0 -234 -419 -628 -608 -546 -412 -296 -257 -128 -44 -86 -146 -194 -243 -242 -212 -156 -156 -92 -75 -59 -41 -23 -9 -14 -21 -32 -42 -59 -78 -91 -97 -87 -95
0 0 0 0 0 0 0 0 0 0 0 0 0 0 -204 -403 -449 -570 -631 -484 -434 -347 -262 -76 -88 -119 -152 -201 -250 -243 -216 -167 -160 -103 -87 -71 -56 -33 -28 -37 -46 -58 -66 -93 -126 -132 -139 -139 -116
0 0 0 0 0 0 0 0 0 -47 0 -250 -81 -102 -285 -424 -672 -712 -630 -627 -593 -407 -269 -140 -151 -185 -176 -239 -246 -233 -193 -172 -160 -110 -109 -117 -80 -56 -58 -72 -77 -80 -95 -115 -142 -147 -104 -90 -79
0 0 0 0 0 0 0 0 0 -132 0 -98 -224 -334 -365 -605 -743 -769 -763 -749 -609 -464 -303 -173 -135 -225 -152 -217 -224 -210 -198 -203 -160 -137 -117 -116 -100 -91 -87 -99 -107 -109 -114 -127 -129 -85 -73 -69 -66
0 0 0 0 0 0 0 0 -63 0 0 -190 -328 -111 -473 -539 0 0 -130 -169 -567 -373 -334 -270 -228 -277 -218 -144 -188 -208 -156 -237 -118 -106 -97 -107 -111 -103 -101 -116 -122 -124 -118 -113 -112 -76 -70 -70 -70
0 0 0 0 0 0 0 -340 -449 0 0 -279 -323 -316 -355 -577 -830 -25 0 0 -542 -461 -361 -388 -313 -311 -299 -282 -226 -215 -234 -145 -156 -144 -145 -103 -108 -119 -114 -97 -105 -113 -114 -106 -92 -85 -75 -77 -89
0 0 0 0 0 0 0 -294 -1 0 -189 0 -276 -383 -453 -737 -866 -380 0 0 0 -367 -137 -498 -401 -410 -374 -390 -302 -260 -265 -205 -152 -152 -132 -103 -177 -212 -156 -140 -115 -135 -134 -117 -90 -85 -86 -92 -96
0 0 0 0 0 0 0 0 -281 -244 -252 -224 0 -451 -635 -764 -831 -755 0 0 -640 -668 -675 -543 -520 -531 -459 -324 -383 -350 -317 -278 -270 -216 -227 -205 -256 -301 -238 -201 -160 -135 -119 -102 -88 -94 -97 -113 -204
0 0 0 0 0 0 0 -295 -297 -168 -75 -220 -199 -427 -596 -680 -749 -806 -293 0 0 -497 -755 -671 -595 -610 -537 -411 -500 -483 -456 -406 -359 -325 -328 -309 -310 -387 -380 -381 -390 -381 -314 -262 -264 -271 -286 -314 -353
0 0 0 0 0 0 0 -217 -207 -275 -107 -334 -459 -516 -553 -604 -690 -718 -727 -813 0 0 -904 -755 -711 -635 -614 -606 -567 -483 -476 -494 -424 -413 -408 -412 -437 -490 -569 -565 -549 -505 -472 -420 -384 -330 -342 -382 -405
0 0 0 0 0 0 0 0 -258 -215 -305 -349 -540 -458 -324 -311 -288 -356 -392 -445 -566 0 -480 -462 -618 -626 -641 -720 -632 -552 -540 -515 -483 -482 -477 -516 -575 -598 -680 0 0 -639 -528 -457 -390 -381 -387 -422 -390
0 0 0 0 0 0 0 0 0 0 0 -134 -183 0 0 0 -31 -242 -239 -375 -315 -418 -610 0 -760 -665 -590 -566 -657 -569 -506 -460 -457 -475 -486 -528 -601 -686 -2 0 0 -720 -620 -511 -459 -430 -376 -362 -229
0 0 0 0 0 0 0 0 0 0 0 0 0 0 0 0 0 0 0 0 -14 -497 -455 -624 -177 -390 -797 -811 -804 -736 -56 -631 -609 -584 -83 -575 -562 -619 -661 0 0 0 -610 -553 -522 -458 -427 -210 -179
0 0 0 0 0 0 0 0 0 0 0 0 0 0 0 0 0 0 0 0 0 0 -903 -717 -526 0 0 0 0 -749 0 0 0 0 0 -692 -633 -31 0 -560 -505 -469 -483 -477 -352 -266 -220 -167 -189
0 0 0 0 0 0 0 0 0 0 0 0 0 0 0 0 0 0 0 0 0 0 0 0 0 0 0 0 0 -471 -47 0 0 0 0 -142 -621 -505 -513 -460 -432 -425 -375 -266 -222 -163 -165 -156 -155
0 0 0 0 0 0 0 0 0 0 0 0 0 0 0 0 0 0 0 0 0 0 0 0 0 0 0 0 0 -721 -760 0 0 0 -514 -612 -556 -460 -443 -471 -462 -414 -389 -293 -176 -131 -155 -166 -159
0 0 0 0 0 0 0 0 0 0 0 0 0 0 0 0 0 0 0 0 0 0 0 0 0 0 0 -41 -533 -372 -560 -611 0 -632 -583 -510 -468 -408 -417 -411 -401 -382 -327 -250 -188 -180 -146 -178 -122
0 0 0 0 0 0 0 0 0 0 0 0 0 0 0 0 0 0 0 0 0 0 0 0 0 0 0 0 0 -400 -514 -481 -570 -587 -559 -517 -423 -401 -403 -416 -421 -360 -290 -258 -197 -202 -234 -252 -134
0 0 0 0 0 0 0 0 0 0 0 0 0 0 0 0 0 0 0 0 0 0 0 0 0 0 0 0 0 0 0 -341 -646 -697 -591 -528 -368 -337 -376 -398 -410 -404 -341 -277 -242 -237 -317 -207 -152
0 0 0 0 0 0 0 0 0 0 0 0 0 0 0 0 0 0 0 0 0 0 0 0 0 0 0 0 0 0 0 0 0 -497 -554 -506 -492 -353 -297 -298 -292 -276 -287 -242 -226 -234 -228 -390 -358
0 0 0 0 0 0 0 0 0 0 0 0 0 0 0 0 0 0 0 0 0 0 0 0 0 0 0 0 0 0 0 0 0 0 0 -1 -474 -371 -421 -460 -257 -175 -157 -167 -164 -90 -156 -436 -406
0 0 0 0 0 0 0 0 0 0 0 0 0 0 0 0 0 0 0 0 0 0 0 0 0 0 0 0 0 0 0 0 0 0 0 0 -1 0 0 -542 -378 -215 -86 -57 -74 -40 -157 -307 0
0 0 0 0 0 0 0 0 0 0 0 0 0 0 0 0 0 0 0 0 0 0 0 0 0 0 0 0 0 0 0 0 0 0 0 0 0 -1 0 -1 -463 -520 -275 -74 -23 -31 -120 -517 0
0 0 0 0 0 0 0 0 0 0 0 0 0 0 0 0 0 0 0 0 0 0 0 0 0 0 0 0 0 0 0 0 0 0 0 0 0 0 -1 0 0 -71 -466 -276 -84 -86 -432 0 0
0 0 0 0 0 0 0 0 0 0 0 0 0 0 0 0 0 0 0 0 0 0 0 0 0 0 0 0 0 0 0 0 0 0 0 0 0 0 0 0 0 0 0 -351 -191 -260 -591 0 0
0 0 0 0 0 0 0 0 0 0 0 0 0 0 0 0 0 0 0 -1 0 -1 -1 0 0 0 0 0 0 0 0 0 0 0 0 0 0 0 0 0 0 0 0 -306 -296 -39 0 0 0
0 0 0 0 0 0 0 0 0 0 0 0 0 0 0 0 0 0 0 0 0 -1 0 -1 -1 -1 0 0 0 0 0 0 0 0 0 0 -1 0 0 0 0 0 0 0 0 0 0 0 0
0 0 0 0 0 0 0 0 0 0 0 0 0 0 0 0 0 0 0 -1 0 0 0 0 -1 0 0 0 0 0 0 0 0 0 0 0 0 -2 0 0 0 0 0 0 0 0 0 0 0
Wind_Speed
2 5 2 2 4 5 2 4 2 3 2 2 4 3 3 3 4 5 4 4 9 14 9 14 16 17 16 15 15 14 15 15 14 15 15 15 14 14 13 11 11 10 11 11 10 9 8 7 6
3 2 3 2 5 4 6 4 2 4 2 3 1 1 1 3 3 2 4 3 10 12 10 10 17 16 16 14 14 14 13 14 13 14 14 14 13 13 11 9 9 9 8 8 7 7 5 4 4
2 1 4 5 3 0 3 2 3 3 2 1 3 3 2 4 3 5 4 10 11 14 5 7 16 16 16 16 15 14 13 13 13 13 13 13 12 11 9 9 7 7 5 5 4 4 3 2 1
2 4 5 5 3 5 5 4 4 4 4 3 2 4 4 4 4 4 11 11 10 13 5 11 16 16 16 15 14 14 13 13 13 13 12 12 11 9 8 8 6 5 4 3 1 1 1 1 3
4 3 5 3 5 5 5 1 4 3 2 2 5 4 2 4 8 11 11 10 11 11 4 9 16 16 15 15 14 13 12 12 12 12 12 11 10 8 8 6 5 4 3 2 2 3 4 4 5
5 3 5 2 5 5 6 2 4 3 3 1 3 4 2 4 5 6 9 8 9 12 4 6 14 15 12 14 14 13 13 13 12 12 11 11 10 9 8 6 5 5 4 5 5 6 7 6 6
6 4 3 2 4 7 5 1 1 1 4 4 6 4 3 2 9 8 7 8 7 6 5 2 4 12 13 11 12 13 12 13 11 10 10 10 10 8 8 6 6 6 6 6 7 7 7 8 7
6 6 1 3 1 6 6 3 2 3 0 0 5 4 4 5 11 11 9 8 8 8 7 3 3 5 5 6 13 13 13 12 12 11 11 10 9 9 8 6 6 7 8 9 9 8 8 8 8
4 6 2 4 4 4 7 5 3 4 3 2 1 5 4 17 14 9 7 5 8 9 9 5 6 5 5 5 7 12 14 14 12 11 11 7 3 4 5 5 7 9 10 11 11 10 10 9 8
6 5 9 6 2 3 3 1 2 3 3 1 3 6 15 14 13 12 10 9 8 11 12 11 7 7 6 5 5 6 7 6 5 4 5 3 4 3 4 6 9 10 11 12 12 12 11 10 4
2 7 5 5 5 2 2 2 4 4 5 8 6 11 12 12 10 10 10 13 18 12 8 13 12 9 10 7 5 4 4 3 4 6 6 4 3 3 3 2 3 3 7 4 6 6 4 6 5
5 5 6 4 5 2 4 2 4 6 2 5 7 15 13 12 11 11 9 6 5 10 12 11 10 10 11 6 7 8 7 5 5 7 7 5 4 4 4 3 3 4 3 5 4 4 5 6 6
4 4 7 7 7 8 2 14 6 5 9 5 10 9 15 17 14 8 6 4 4 6 6 6 5 5 6 6 3 6 8 8 8 7 7 6 5 5 4 5 4 4 3 4 5 4 5 6 6
6 3 3 4 6 1 21 25 14 35 17 26 26 25 24 24 22 21 23 9 2 4 2 1 3 2 3 5 4 3 3 4 3 3 4 7 5 4 4 5 5 5 4 3 4 4 4 5 4
1 1 3 16 8 8 4 35 22 20 30 30 27 24 25 24 25 23 21 19 19 7 5 8 9 8 6 5 4 2 2 2 3 3 4 4 4 4 4 4 5 5 3 4 3 4 2 2 3
3 4 4 8 18 10 18 14 21 22 27 28 26 23 23 26 24 23 22 21 24 19 20 9 4 6 7 6 4 4 4 4 4 4 4 6 6 5 4 5 5 4 4 2 3 3 3 3 3
6 3 3 9 22 7 13 7 19 20 22 27 24 23 21 23 27 25 24 23 22 22 22 21 19 10 5 5 3 5 6 5 4 4 4 6 6 6 5 3 3 4 4 4 3 2 3 2 2
5 6 6 9 12 30 26 20 17 20 24 24 22 21 22 23 24 22 23 21 21 21 21 22 19 22 20 3 4 4 4 4 4 4 4 6 5 7 6 6 6 5 4 4 3 4 3 3 2
3 8 15 18 11 20 20 20 17 17 23 23 21 21 21 21 19 19 20 20 21 22 24 23 22 22 18 13 6 4 4 3 3 5 6 6 5 7 7 6 6 5 6 7 6 3 4 3 2
8 21 12 11 21 19 15 18 15 18 20 19 19 20 20 21 22 24 24 22 22 21 20 21 21 21 17 15 13 7 5 3 1 3 5 5 7 7 6 7 7 8 7 8 8 6 3 3 4
6 11 15 10 10 20 12 9 9 10 17 17 18 15 17 19 19 21 23 23 22 22 22 20 20 18 18 19 13 13 9 10 5 6 4 2 4 6 7 10 9 10 10 9 10 9 10 7 4
6 13 21 26 10 6 2 4 2 6 12 16 16 17 17 19 18 17 19 20 20 20 19 19 18 18 18 19 15 16 10 9 10 7 6 9 8 9 6 7 6 8 7 9 10 10 9 7 6
7 21 27 23 6 7 3 8 3 5 10 16 15 16 15 15 16 18 18 17 16 17 17 16 18 18 18 17 15 12 13 10 10 10 15 11 10 8 8 6 5 7 6 9 9 8 10 9 5
3 10 7 4 3 2 4 5 5 4 4 9 13 16 17 17 17 16 16 17 18 17 17 18 18 15 15 15 15 15 15 16 13 14 12 11 10 9 10 8 6 8 7 8 9 11 11 9 4
7 7 1 1 1 1 2 8 2 6 7 9 11 14 14 15 17 18 19 18 18 20 20 17 19 19 17 16 14 13 13 12 13 14 12 16 13 11 11 11 9 7 10 10 10 10 11 8 9
2 6 7 8 6 4 7 5 2 7 5 5 8 9 11 13 13 15 17 17 17 18 19 19 21 20 20 18 16 13 11 8 9 10 12 12 12 12 16 14 14 13 14 12 10 9 7 10 9
2 2 2 8 4 7 3 4 4 4 6 9 10 11 12 12 12 13 14 12 15 16 17 18 19 19 20 22 17 15 13 14 12 14 13 12 15 14 16 17 16 14 16 16 12 9 11 10 10
4 2 2 3 6 4 3 5 3 2 6 8 9 9 10 11 11 11 11 11 13 13 12 16 15 17 17 19 18 17 17 16 15 14 16 16 16 17 17 17 17 16 15 19 14 10 8 10 7
7 4 6 5 3 6 7 2 4 0 1 6 10 10 9 10 10 9 9 9 11 11 12 14 14 16 17 17 17 18 20 21 17 16 16 16 18 20 20 19 17 17 16 19 14 13 13 12 11
5 3 3 4 2 3 2 4 3 1 1 4 8 10 10 9 10 9 10 12 12 12 12 16 17 17 17 15 17 18 18 18 20 20 20 20 19 17 21 20 20 18 17 18 16 16 15 14 15
Wind_Direction
112 119 125 57 55 58 308 291 319 263 277 210 125 168 196 177 170 216 331 176 133 146 170 156 150 145 142 132 131 133 133 132 134 132 128 125 123 121 119 119 118 116 115 114 110 102 93 93 92
118 81 49 71 75 48 292 179 258 236 206 215 288 70 20 296 61 79 115 128 139 141 156 154 146 145 146 141 137 140 141 137 138 135 131 129 127 125 125 126 124 125 123 120 113 103 98 90 80
178 116 76 84 101 80 265 315 267 294 36 262 91 75 48 332 8 151 110 129 133 149 117 158 144 148 150 148 146 147 147 144 143 140 137 134 132 132 134 137 137 136 132 124 113 102 92 68 40
112 6 38 74 302 261 221 212 173 3 43 10 67 57 65 23 150 134 126 127 127 150 124 152 149 156 154 150 151 152 152 152 150 147 143 141 142 144 148 152 156 164 163 152 143 117 283 339 328
36 55 45 28 277 271 267 319 168 104 218 177 175 152 84 48 76 120 126 125 131 151 136 140 159 160 158 156 156 157 159 156 155 154 154 154 157 162 167 173 185 200 214 232 251 278 296 316 323
35 94 51 322 284 288 293 287 182 159 246 301 89 80 94 105 92 126 125 120 139 152 126 146 152 162 159 163 160 162 165 167 163 164 167 167 173 178 186 194 214 234 253 276 295 307 311 319 324
115 80 192 242 279 318 304 172 88 203 357 10 120 127 260 180 121 104 88 84 88 116 95 94 145 171 170 169 163 169 173 176 171 172 177 182 183 191 204 211 236 256 271 284 292 299 307 311 311
108 91 155 261 216 275 326 22 129 241 116 64 136 187 230 162 120 107 93 86 123 154 164 148 166 164 164 170 173 179 181 184 182 184 189 193 197 206 222 232 258 272 286 291 293 296 300 302 302
124 70 230 259 190 287 321 8 353 287 300 22 117 127 140 132 124 109 109 100 151 178 187 177 174 179 166 165 183 183 189 193 192 196 200 202 205 228 236 252 260 271 281 289 294 297 297 294 285
98 120 217 226 258 65 280 291 239 307 315 269 61 51 124 134 142 149 164 169 175 190 192 190 186 178 167 179 187 171 193 195 193 188 205 203 215 229 244 251 263 272 277 284 292 292 292 296 295
146 162 221 268 265 304 261 260 207 195 253 227 176 155 150 153 160 170 189 189 192 194 185 193 194 183 176 187 178 182 185 180 183 196 198 202 212 232 250 267 274 289 280 288 292 298 299 302 301
125 218 169 265 239 254 220 188 252 185 192 351 148 161 158 163 182 187 198 217 195 188 193 188 197 193 194 186 191 192 191 189 198 206 196 191 206 214 232 241 249 253 254 268 262 279 281 289 287
153 217 165 230 221 245 356 356 268 305 334 54 107 87 35 20 23 20 5 15 17 319 321 330 322 263 221 201 203 202 205 201 210 204 200 198 204 215 213 230 227 245 247 260 279 287 299 298 297
189 229 244 234 238 172 80 22 44 332 319 45 55 60 57 47 32 27 11 342 257 225 306 179 205 214 341 331 342 332 333 318 309 287 255 226 217 218 220 250 244 239 221 247 252 253 275 290 295
144 288 297 16 320 59 131 29 16 6 54 56 55 54 57 50 43 35 21 10 10 309 230 181 168 190 212 216 243 226 254 251 264 263 258 260 262 273 270 260 265 262 252 254 253 258 238 260 270
76 38 100 356 348 360 85 50 23 18 57 55 50 52 50 49 43 33 26 24 18 23 19 351 207 189 184 200 219 208 215 214 208 214 221 222 230 229 249 274 280 291 283 287 276 269 253 231 232
0 190 47 20 7 87 70 79 27 30 46 58 46 42 40 42 38 32 27 21 21 21 21 24 23 359 246 198 209 211 227 224 230 230 212 205 214 217 212 232 261 278 284 285 267 264 261 221 228
214 122 36 95 32 80 79 73 45 35 45 47 43 36 35 31 31 20 20 18 17 18 22 21 22 15 359 283 215 226 216 256 225 238 230 215 208 211 209 219 219 222 217 219 234 241 231 250 195
126 76 107 134 152 65 79 74 52 42 44 38 34 31 25 21 11 12 15 14 10 18 16 17 11 11 10 358 341 285 217 215 206 218 234 226 228 224 217 231 234 222 226 224 207 207 209 254 223
100 109 116 64 95 98 98 77 65 48 51 41 31 30 22 12 9 4 5 9 13 12 11 11 11 9 13 360 353 342 314 276 199 208 223 219 222 217 217 218 219 219 232 219 213 185 177 196 186
158 149 178 148 104 135 109 69 34 50 50 39 32 27 25 15 6 2 4 1 1 7 5 6 5 5 12 359 352 359 4 358 7 359 340 333 229 219 220 220 223 221 209 223 217 197 184 203 185
169 179 146 147 138 171 136 173 35 17 36 32 21 17 12 7 0 2 1 360 0 359 359 360 359 1 9 359 2 2 360 352 338 324 303 301 277 286 234 228 243 242 237 244 228 216 203 180 199
212 145 162 172 127 111 66 81 334 23 2 10 8 7 6 2 358 357 357 354 353 358 358 354 358 1 359 358 357 356 354 338 328 329 327 319 323 308 299 325 278 260 246 252 248 243 227 213 193
131 87 87 64 54 66 335 107 327 35 358 351 355 357 356 354 355 353 352 351 352 355 357 357 359 356 353 350 347 351 347 333 335 330 323 318 319 317 316 312 305 294 273 254 247 238 226 210 216
68 75 18 315 138 221 127 58 144 82 45 15 353 350 353 350 349 350 352 354 353 353 352 351 352 348 349 349 347 343 334 328 322 318 314 318 312 314 309 308 290 276 265 259 243 230 227 188 194
67 151 158 193 182 201 24 108 160 111 74 21 353 348 349 350 350 350 348 347 351 351 350 348 347 343 344 343 343 340 327 319 309 305 306 299 300 300 305 301 299 287 279 270 247 231 195 172 187
165 104 156 106 62 87 116 50 351 83 23 357 353 352 352 348 348 349 346 345 351 351 343 344 343 340 341 338 336 332 328 320 313 306 300 300 299 298 299 300 292 287 288 258 228 221 204 179 183
79 108 78 16 141 148 176 186 175 349 347 342 343 340 339 336 339 343 338 346 352 341 340 345 343 341 336 332 331 327 327 322 314 308 310 303 297 295 297 295 290 286 282 266 212 202 188 174 152
349 29 47 109 87 155 150 206 142 102 306 330 333 335 331 326 325 325 329 335 337 333 344 345 347 342 339 338 334 329 326 322 318 310 307 305 303 298 294 292 289 286 279 273 203 184 174 167 153
65 75 59 126 183 54 70 142 95 123 350 336 324 330 331 324 321 324 328 337 338 341 346 352 350 345 343 335 332 331 326 322 316 313 307 306 301 295 293 289 286 281 278 278 203 180 180 174 167